Ketchikan, AK

8:03 AM AKDT on October 16, 2018 (GMT -0800)
Ketchikan International

Weather History for PAKT - October, 2018

Change the Weather History Date:

Friday, October 12, 2018

  Actual Average Record
Temperature  
Mean Temperature 50 °F -  
Max Temperature 57 °F 51 °F 60 °F (1957)
Min Temperature 42 °F 40 °F 31 °F (1992)
Degree Days  
Heating Degree Days 16    
Moisture  
Dew Point 43 °F    
Average Humidity 80    
Maximum Humidity 92    
Minimum Humidity 64    
Precipitation  
Precipitation 0.00 in - - ()
Sea Level Pressure  
Sea Level Pressure 30.28 in    
Wind  
Wind Speed 6 mph (NW)    
Max Wind Speed 13 mph    
Max Gust Speed -    
Visibility 10 miles    
Events      
Averages and records for this station are not official NWS values.
T = Trace of Precipitation, MM = Missing Value Source: NWS Daily Summary

Daily Weather History Graph

Daily Weather History Graph

Search for Another Location

Airport or City:

Astronomy

Oct. 12, 2018 Rise Set
Actual Time 7:11 AM AKDT 5:54 PM AKDT
Civil Twilight 6:34 AM AKDT 6:30 PM AKDT
Nautical Twilight 5:52 AM AKDT 7:13 PM AKDT
Astronomical Twilight 5:09 AM AKDT 7:55 PM AKDT
Moon 11:23 AM AKDT (10/12) 8:02 PM AKDT (10/12)
Length of Visible Light 11h 56m
Length of Day
10h 42m
Waxing Crescent, 15% of the Moon is Illuminated
Oct 12
Waxing Crescent
Oct 16
First Quarter
Oct 24
Full
Oct 31
Last Quarter
Nov 7
New

Hourly Weather History & Observations

Time (AKDT) Temp. Windchill Dew Point Humidity Pressure Visibility Wind Dir Wind Speed Gust Speed Precip Events Conditions
12:53 AM 48.9 °F - 43.0 °F 80% 30.03 in 10.0 mi NW 8.1 mph - N/A   Scattered Clouds
1:53 AM 50.0 °F - 43.0 °F 77% 30.07 in 10.0 mi North 12.7 mph - N/A   Overcast
2:53 AM 48.9 °F - 43.0 °F 80% 30.10 in 10.0 mi NNW 6.9 mph - N/A   Mostly Cloudy
3:53 AM 48.0 °F - 42.1 °F 80% 30.13 in 10.0 mi NW 6.9 mph - N/A   Partly Cloudy
4:53 AM 48.9 °F - 43.0 °F 80% 30.15 in 10.0 mi NW 6.9 mph - N/A   Clear
5:53 AM 46.0 °F 43.9 °F 42.1 °F 86% 30.18 in 10.0 mi NW 4.6 mph - N/A   Clear
6:12 AM 46.0 °F - 42.1 °F 86% 30.19 in 10.0 mi Calm Calm - N/A   Clear
6:53 AM 46.4 °F - 41.0 °F 81% 30.21 in 10.0 mi Calm Calm - N/A   Clear
7:53 AM 44.6 °F 43.1 °F 41.0 °F 87% 30.24 in 10.0 mi WSW 3.5 mph - N/A   Scattered Clouds
8:53 AM 48.2 °F - 44.6 °F 87% 30.27 in 10.0 mi Calm Calm - N/A   Clear
9:53 AM 51.8 °F - 44.6 °F 76% 30.30 in 10.0 mi NW 3.5 mph - N/A   Scattered Clouds
10:53 AM 53.6 °F - 44.6 °F 72% 30.32 in 10.0 mi North 6.9 mph - N/A   Scattered Clouds
11:53 AM 55.9 °F - 45.0 °F 67% 30.34 in 10.0 mi NNW 9.2 mph - N/A   Scattered Clouds
12:53 PM 57.0 °F - 45.0 °F 64% 30.35 in 10.0 mi NNW 9.2 mph - N/A   Scattered Clouds
1:53 PM 57.0 °F - 45.0 °F 64% 30.35 in 10.0 mi NNW 9.2 mph - N/A   Partly Cloudy
2:53 PM 54.0 °F - 46.0 °F 75% 30.36 in 10.0 mi WNW 4.6 mph - N/A   Partly Cloudy
4:53 PM 51.1 °F - 43.0 °F 74% 30.36 in 10.0 mi Calm Calm - N/A   Clear
5:53 PM 48.9 °F - 42.1 °F 77% 30.37 in 10.0 mi WNW 3.5 mph - N/A   Clear
6:53 PM 44.6 °F - 41.0 °F 87% 30.38 in 10.0 mi Calm Calm - N/A   Clear
7:53 PM 42.8 °F - 39.2 °F 87% 30.39 in 10.0 mi Calm Calm - N/A   Clear
8:53 PM 42.8 °F 41.1 °F 39.2 °F 87% 30.39 in 10.0 mi West 3.5 mph - N/A   Clear
9:53 PM 43.0 °F - 39.0 °F 86% 30.39 in 10.0 mi Calm Calm - N/A   Clear
10:53 PM 42.1 °F - 39.9 °F 92% 30.42 in 10.0 mi Calm Calm - N/A   Clear
11:53 PM 45.0 °F 43.5 °F 42.1 °F 90% 30.41 in 10.0 mi WNW 3.5 mph - N/A   Clear